Regional Weather Roundup
Issued by NWS

Home | Current Version | Previous Version | Text Only | Print | Product List | Glossary On
Versions: 1 2 3 4 5 6 7 8 9 10 11 12 13 14 15 16 17 18 19 20 21 22 23 24 25 26 27 28 29 30 31 32 33 34 35 36 37 38 39 40 41 42 43 44 45 46 47 48 49 50
000
ASUS46 KSEW 311710
RWRWA

WASHINGTON REGIONAL WEATHER ROUNDUP
NATIONAL WEATHER SERVICE SEATTLE WA
900 AM PST SAT JAN 31 2015

NOTE:"FAIR" INDICATES FEW OR NO CLOUDS BELOW 12,000 FEET WITH NO
SIGNIFICANT WEATHER AND/OR OBSTRUCTIONS TO VISIBILITY.

WAZ505-507>509-311800-
SEATTLE, TACOMA, EVERETT, AND VICINITY

CITY           SKY/WX    TMP DP  RH WIND       PRES   REMARKS
EVERETT        FOG       37  36  96 N7        30.24S VSB<1/4
BOEING FIELD   FOG       41  38  89 CALM      30.25S VSB 1/8
RENTON         FOG       38  38 100 NE3       30.25S VSB 1/2
SEATAC AIRPORT FOG       39  38  96 NE6       30.24S VSB 1/8
JBLM-MCCHORD   FOG       38  38 100 SE1       30.24R VSB<1/4
PUYALLUP       FOG       34  34 100 CALM      30.23F VSB<1/4
BREMERTON      CLOUDY    37  37 100 CALM      30.26R VSB 1/4
JBLM-FT LEWIS  FOG       39  39 100 NE1       30.24R VSB 1/4
TACOMA NARROWS FOG       40  39  97 N5        30.24S VSB 1/4
$$

WAZ001-503-506-510-514-515-311800-
NORTH INTERIOR

CITY           SKY/WX    TMP DP  RH WIND       PRES   REMARKS
BELLINGHAM     FOG       33  32  96 CALM      30.27R VSB 1/4
FRIDAY HARBOR  PTCLDY    41  38  89 NW3       30.27S
EASTSOUND      MOCLDY    41  39  93 CALM      30.25F
PORT ANGELES   CLOUDY    43  41  93 SE5       30.25S
NAS WHIDBEY    CLOUDY    44  41  89 CALM      30.27R FOG
ARLINGTON      CLOUDY    34  30  86 N3        30.27R VSB<1/4
BURLINGTON     CLOUDY    36 N/A N/A E3        30.28R VSB 0
$$

WAZ020-022-039-040-504-511-512-311800-
SOUTHWEST INTERIOR

CITY           SKY/WX    TMP DP  RH WIND       PRES   REMARKS
SHELTON        FOG       36  35  96 E3        30.22S VSB 1/4
OLYMPIA        FOG       40  40 100 NE3       30.24S VSB 1/4
CHEHALIS       FOG       39  39 100 CALM      30.25R VSB<1/4
KELSO          CLOUDY    37  34  87 CALM      30.28S
VANCOUVER      CLOUDY    32  31  96 N3        30.25S
SCAPPOOSE, OR  FOG       36  35  96 CALM      30.24S VSB 1/4
PORTLAND, OR   FOG       33  33 100 W3        30.25S VSB 1/8
$$

WAZ021-516-517-311800-
WASHINGTON COAST

CITY           SKY/WX    TMP DP  RH WIND       PRES   REMARKS
FORKS          CLOUDY    37  37 100 CALM      30.20F
HOQUIAM        CLOUDY    39  38  96 NE10      30.20F FOG
ASTORIA, OR    MOSUNNY   39  37  92 E3        30.18S
$$

WAZ019-023-024-040-518-519-311800-
CASCADE MOUNTAINS AND COLUMBIA GORGE

CITY           SKY/WX    TMP DP  RH WIND       PRES   REMARKS
TROUTDALE, OR  PTSUNNY   33  32  96 NW7       30.23F FOG
THE DALLES, OR CLOUDY    40  33  76 E10       30.37S
$$

WAZ026-027-041>044-520-521-311800-
EAST SLOPES

CITY           SKY/WX    TMP DP  RH WIND       PRES   REMARKS
OMAK           CLOUDY    33  26  75 NW8       30.32S
WENATCHEE      CLOUDY    35  30  82 W3        30.33R
ELLENSBURG     CLOUDY    35  30  82 N3        30.30S
YAKIMA         CLOUDY    37  31  78 CALM      30.34F
$$

WAZ028-034-035-311800-
COLUMBIA BASIN

CITY           SKY/WX    TMP DP  RH WIND       PRES   REMARKS
EPHRATA        CLOUDY    36  31  82 CALM      30.33R
MOSES LAKE     CLOUDY    35  33  92 W3        30.34R
PASCO          CLOUDY    37  36  96 CALM      30.37S
HERMISTON, OR  CLOUDY    37  34  89 N5        30.35S FOG
$$

WAZ036>038-311800-
NORTHEAST WASHINGTON

CITY           SKY/WX    TMP DP  RH WIND       PRES   REMARKS
SPOKANE GEIGER CLOUDY    30  28  92 SW5       30.26R
SPOKANE FELTS  CLOUDY    33  28  81 SW6       30.29R
FAIRCHILD AFB  MIX PCPN  29  29 100 S6        30.25S
COEURDALENE,ID CLOUDY    30  27  86 SW5       30.26R
DEER PARK      CLOUDY    30  29  96 CALM      30.27R
$$

WAZ029>033-311800-
SOUTHEAST WASHINGTON

CITY           SKY/WX    TMP DP  RH WIND       PRES   REMARKS
PULLMAN        CLOUDY    30  26  85 SE3       30.28R
LEWISTON, ID   CLOUDY    35  33  92 CALM      30.31S
WALLA WALLA    CLOUDY    35  33  92 CALM      30.33R FOG
PENDLETON, OR  CLOUDY    33  32  96 S5        30.30S FOG
$$



USA.gov is the U.S. government's official web portal to all federal, state and local government web resources and services.